When you browse on this site, cookies collect data to enhance your experience and personalize the content and advertising you see.
Visit our Privacy Policy to learn more. By continuing to use the site, you agree to this use of cookies and data.

Meteo pe oră la Dziecinow

Astăzi, 26 Septembrie, Sâmbătă

Timp Temperatura Precipitaţii Vânt Presiune Umiditate
00:00 +19°C° 0 mm 5 m/s 739 mmHg 81%
01:00 +19°C° 0 mm 5 m/s 739 mmHg 80%
02:00 +19°C° 0 mm 5 m/s 739 mmHg 79%
03:00 +19°C° 0 mm 5 m/s 738 mmHg 79%
04:00 +19°C° 0 mm 5 m/s 738 mmHg 78%
05:00 +19°C° 0 mm 5 m/s 738 mmHg 77%
06:00 +17°C° 0 mm 6 m/s 738 mmHg 75%
07:00 +17°C° 0 mm 6 m/s 737 mmHg 74%
08:00 +19°C° 0 mm 6 m/s 737 mmHg 70%
09:00 +20°C° 0 mm 7 m/s 738 mmHg 67%
10:00 +21°C° 0 mm 7 m/s 738 mmHg 63%
11:00 +22°C° 0.1 mm 7 m/s 738 mmHg 62%
12:00 +22°C° 0.1 mm 7 m/s 738 mmHg 62%
13:00 +23°C° 0.1 mm 7 m/s 738 mmHg 61%
14:00 +22°C° 0.2 mm 6 m/s 738 mmHg 68%
15:00 +21°C° 0.2 mm 5 m/s 738 mmHg 75%
16:00 +19°C° 0.2 mm 4 m/s 738 mmHg 81%
17:00 +19°C° 0.5 mm 4 m/s 739 mmHg 85%
18:00 +18°C° 0.5 mm 3 m/s 739 mmHg 89%
19:00 +17°C° 0.5 mm 3 m/s 739 mmHg 93%
20:00 +17°C° 1.8 mm 2 m/s 739 mmHg 93%
21:00 +16°C° 1.8 mm 2 m/s 739 mmHg 93%
22:00 +16°C° 1.8 mm 2 m/s 740 mmHg 92%
23:00 +14°C° 2.2 mm 3 m/s 739 mmHg 92%

Mâine, 27 Septembrie, Duminică

Timp Temperatura Precipitaţii Vânt Presiune Umiditate
00:00 +14°C° 2.2 mm 3 m/s 739 mmHg 92%
01:00 +13°C° 2.2 mm 4 m/s 739 mmHg 92%
02:00 +13°C° 1 mm 4 m/s 739 mmHg 92%
03:00 +13°C° 1 mm 4 m/s 738 mmHg 91%
04:00 +13°C° 1 mm 4 m/s 738 mmHg 91%
05:00 +13°C° 1.1 mm 5 m/s 738 mmHg 91%
06:00 +13°C° 1.1 mm 5 m/s 738 mmHg 91%
07:00 +11°C° 1.1 mm 6 m/s 739 mmHg 91%
08:00 +11°C° 1.9 mm 6 m/s 739 mmHg 91%
09:00 +10°C° 1.9 mm 6 m/s 740 mmHg 91%
10:00 +9°C° 1.9 mm 6 m/s 740 mmHg 91%
11:00 +9°C° 0.9 mm 6 m/s 741 mmHg 90%
12:00 +9°C° 0.9 mm 6 m/s 741 mmHg 89%
13:00 +9°C° 0.9 mm 6 m/s 742 mmHg 88%
14:00 +9°C° 0.9 mm 6 m/s 742 mmHg 89%
15:00 +9°C° 0.9 mm 6 m/s 743 mmHg 89%
16:00 +9°C° 0.9 mm 6 m/s 744 mmHg 89%
17:00 +9°C° 0.3 mm 6 m/s 745 mmHg 89%
18:00 +9°C° 0.3 mm 5 m/s 745 mmHg 88%
19:00 +10°C° 0.3 mm 4 m/s 746 mmHg 88%
20:00 +11°C° 0 mm 4 m/s 747 mmHg 86%
21:00 +11°C° 0 mm 4 m/s 748 mmHg 84%
22:00 +11°C° 0 mm 4 m/s 748 mmHg 82%
23:00 +10°C° 0 mm 4 m/s 749 mmHg 83%

Poimâine, 28 Septembrie, Luni

Timp Temperatura Precipitaţii Vânt Presiune Umiditate
00:00 +10°C° 0 mm 4 m/s 749 mmHg 83%
01:00 +8°C° 0 mm 4 m/s 749 mmHg 84%
02:00 +8°C° 0 mm 4 m/s 749 mmHg 82%
03:00 +8°C° 0 mm 4 m/s 750 mmHg 81%
04:00 +8°C° 0 mm 4 m/s 750 mmHg 80%
05:00 +10°C° 0 mm 4 m/s 750 mmHg 79%
06:00 +10°C° 0 mm 4 m/s 751 mmHg 77%
07:00 +10°C° 0 mm 4 m/s 751 mmHg 76%
08:00 +11°C° 0 mm 4 m/s 751 mmHg 70%
09:00 +13°C° 0 mm 5 m/s 751 mmHg 64%
10:00 +15°C° 0 mm 5 m/s 751 mmHg 58%
11:00 +14°C° 0.1 mm 5 m/s 751 mmHg 62%
12:00 +14°C° 0.1 mm 4 m/s 751 mmHg 67%
13:00 +13°C° 0.1 mm 4 m/s 751 mmHg 71%
14:00 +13°C° 0.5 mm 4 m/s 751 mmHg 77%
15:00 +12°C° 0.5 mm 4 m/s 751 mmHg 83%
16:00 +11°C° 0.5 mm 4 m/s 750 mmHg 88%
17:00 +11°C° 0 mm 4 m/s 750 mmHg 87%
18:00 +12°C° 0 mm 3 m/s 750 mmHg 85%
19:00 +12°C° 0 mm 3 m/s 750 mmHg 84%
20:00 +12°C° 0 mm 2 m/s 750 mmHg 85%
21:00 +12°C° 0 mm 1 m/s 750 mmHg 86%
22:00 +12°C° 0 mm 1 m/s 749 mmHg 88%
23:00 +12°C° 0 mm 1 m/s 749 mmHg 88%

29 Septembrie, Marţi

Timp Temperatura Precipitaţii Vânt Presiune Umiditate
00:00 +12°C° 0 mm 1 m/s 749 mmHg 89%
01:00 +12°C° 0 mm 1 m/s 749 mmHg 90%
02:00 +11°C° 0 mm 1 m/s 749 mmHg 90%
03:00 +11°C° 0 mm 1 m/s 749 mmHg 91%
04:00 +11°C° 0 mm 1 m/s 748 mmHg 92%
05:00 +11°C° 0 mm 1 m/s 748 mmHg 91%
06:00 +12°C° 0 mm 2 m/s 748 mmHg 91%
07:00 +12°C° 0 mm 2 m/s 748 mmHg 90%
08:00 +12°C° 0 mm 3 m/s 748 mmHg 87%
09:00 +13°C° 0 mm 3 m/s 748 mmHg 85%
10:00 +14°C° 0 mm 3 m/s 748 mmHg 82%
11:00 +14°C° 0.1 mm 3 m/s 748 mmHg 81%
12:00 +16°C° 0.1 mm 3 m/s 748 mmHg 80%
13:00 +16°C° 0.1 mm 3 m/s 748 mmHg 79%
14:00 +16°C° 0.2 mm 3 m/s 748 mmHg 80%
15:00 +16°C° 0.2 mm 3 m/s 748 mmHg 80%
16:00 +14°C° 0.2 mm 4 m/s 748 mmHg 81%
17:00 +14°C° 0 mm 4 m/s 748 mmHg 82%
18:00 +13°C° 0 mm 3 m/s 748 mmHg 84%
19:00 +12°C° 0 mm 3 m/s 748 mmHg 85%
20:00 +12°C° 0 mm 3 m/s 748 mmHg 86%
21:00 +11°C° 0 mm 4 m/s 748 mmHg 86%
22:00 +11°C° 0 mm 4 m/s 748 mmHg 87%
23:00 +11°C° 0 mm 4 m/s 748 mmHg 88%

30 Septembrie, Miercuri

Timp Temperatura Precipitaţii Vânt Presiune Umiditate
00:00 +10°C° 0 mm 4 m/s 748 mmHg 89%
01:00 +10°C° 0 mm 4 m/s 748 mmHg 90%
02:00 +10°C° 0 mm 4 m/s 748 mmHg 90%
03:00 +9°C° 0 mm 5 m/s 747 mmHg 90%
04:00 +9°C° 0 mm 5 m/s 747 mmHg 90%
05:00 +9°C° 0.2 mm 5 m/s 747 mmHg 90%
06:00 +9°C° 0.2 mm 5 m/s 747 mmHg 90%
07:00 +10°C° 0.2 mm 5 m/s 747 mmHg 90%
08:00 +10°C° 0.4 mm 5 m/s 747 mmHg 91%
09:00 +10°C° 0.4 mm 5 m/s 747 mmHg 91%
10:00 +11°C° 0.4 mm 4 m/s 747 mmHg 92%
11:00 +12°C° 0.3 mm 4 m/s 747 mmHg 91%
12:00 +12°C° 0.3 mm 4 m/s 747 mmHg 91%
13:00 +13°C° 0.3 mm 4 m/s 747 mmHg 90%
14:00 +13°C° 0.3 mm 3 m/s 746 mmHg 91%
15:00 +13°C° 0.3 mm 3 m/s 746 mmHg 93%
16:00 +13°C° 0.3 mm 3 m/s 746 mmHg 95%
17:00 +13°C° 0.7 mm 3 m/s 746 mmHg 95%
18:00 +13°C° 0.7 mm 3 m/s 746 mmHg 96%
19:00 +13°C° 0.7 mm 3 m/s 746 mmHg 96%
20:00 +13°C° 0.4 mm 3 m/s 746 mmHg 97%
21:00 +13°C° 0.4 mm 3 m/s 746 mmHg 97%
22:00 +13°C° 0.4 mm 3 m/s 746 mmHg 97%
23:00 +13°C° 0.4 mm 3 m/s 746 mmHg 96%

1 Octombrie, Joi

Timp Temperatura Precipitaţii Vânt Presiune Umiditate
00:00 +13°C° 0.4 mm 3 m/s 746 mmHg 96%
01:00 +13°C° 0.4 mm 4 m/s 746 mmHg 95%
02:00 +13°C° 0.3 mm 4 m/s 746 mmHg 95%
03:00 +13°C° 0.3 mm 4 m/s 746 mmHg 95%
04:00 +12°C° 0.3 mm 4 m/s 746 mmHg 94%
05:00 +12°C° 0.2 mm 4 m/s 746 mmHg 94%
06:00 +12°C° 0.2 mm 4 m/s 746 mmHg 94%
07:00 +12°C° 0.2 mm 4 m/s 746 mmHg 94%
08:00 +12°C° 0 mm 4 m/s 746 mmHg 92%
09:00 +13°C° 0 mm 4 m/s 747 mmHg 91%
10:00 +13°C° 0 mm 4 m/s 747 mmHg 89%
11:00 +14°C° 0.1 mm 4 m/s 747 mmHg 86%
12:00 +14°C° 0.1 mm 3 m/s 747 mmHg 82%
13:00 +16°C° 0.1 mm 3 m/s 747 mmHg 79%
14:00 +16°C° 0.1 mm 2 m/s 747 mmHg 77%
15:00 +16°C° 0.1 mm 2 m/s 747 mmHg 76%
16:00 +18°C° 0.1 mm 1 m/s 747 mmHg 74%
17:00 +16°C° 0 mm 1 m/s 747 mmHg 78%
18:00 +14°C° 0 mm 2 m/s 748 mmHg 81%
19:00 +13°C° 0 mm 2 m/s 748 mmHg 84%
20:00 +13°C° 0 mm 2 m/s 748 mmHg 86%
21:00 +13°C° 0 mm 2 m/s 749 mmHg 87%
22:00 +11°C° 0 mm 3 m/s 749 mmHg 89%
23:00 +11°C° 0 mm 3 m/s 749 mmHg 89%
Arată mai mult